Precipitable_Water
0.79 0.83 0.78 0.80 0.81 0.81 0.76 0.82 0.66 0.76 0.83 0.93 0.83 0.82 0.86 0.97 1.04 1.03 1.02 1.08 1.13 1.15 1.29 1.38 1.43 1.53 1.63 1.70 1.74 1.76 1.78 1.69 1.72 1.81 1.92 2.04 1.95 2.05 2.09 2.16 2.17 2.16 2.15 2.21
0.72 0.74 0.72 0.82 0.81 0.80 0.67 0.71 0.70 0.66 0.81 0.80 0.70 0.81 0.81 0.90 0.99 1.03 1.03 1.04 1.08 1.16 1.25 1.36 1.41 1.48 1.52 1.61 1.71 1.76 1.81 1.85 1.80 1.65 1.95 2.04 2.07 2.06 2.16 2.08 2.11 2.08 2.06 2.18
0.68 0.84 0.75 0.64 0.59 0.62 0.68 0.65 0.61 0.73 0.73 0.83 0.66 0.67 0.75 0.84 0.97 1.07 1.05 1.17 1.12 1.15 1.23 1.25 1.30 1.39 1.47 1.48 1.55 1.63 1.80 1.84 1.90 1.95 1.73 1.79 1.90 1.97 2.03 2.05 2.03 2.06 2.15 2.15
0.65 0.78 0.67 0.54 0.62 0.62 0.54 0.61 0.62 0.75 0.79 0.63 0.77 0.47 0.61 0.72 0.82 0.91 1.00 1.02 1.11 1.13 1.17 1.22 1.25 1.29 1.38 1.44 1.52 1.63 1.70 1.88 1.82 1.96 1.86 1.63 1.67 1.71 1.89 1.97 2.10 2.18 2.23 2.11
0.58 0.66 0.60 0.53 0.69 0.58 0.58 0.57 0.70 0.72 0.69 0.78 0.69 0.47 0.63 0.75 0.70 0.77 0.87 1.06 1.02 1.13 1.24 1.18 1.19 1.26 1.33 1.40 1.44 1.57 1.68 1.73 1.83 1.87 1.90 1.79 1.66 1.88 1.88 1.94 1.86 2.00 2.02 2.03
0.58 0.72 0.62 0.54 0.66 0.57 0.55 0.58 0.83 0.81 0.74 0.60 0.59 0.63 0.62 0.69 0.67 0.70 0.78 0.90 1.04 1.11 1.11 1.19 1.24 1.24 1.27 1.34 1.39 1.45 1.55 1.64 1.71 1.82 1.82 1.83 1.79 1.77 1.95 1.91 1.91 1.98 2.02 2.06
0.53 0.58 0.56 0.62 0.51 0.48 0.46 0.53 0.61 0.61 0.61 0.51 0.62 0.58 0.53 0.64 0.65 0.69 0.76 0.84 0.87 0.92 0.97 1.05 1.06 1.13 1.13 1.21 1.26 1.38 1.44 1.55 1.66 1.74 1.76 1.82 1.82 1.85 1.79 1.83 1.84 1.80 1.90 2.09
0.42 0.43 0.50 0.53 0.50 0.59 0.66 0.66 0.63 0.49 0.46 0.43 0.57 0.46 0.48 0.56 0.66 0.73 0.77 0.82 0.86 1.00 0.98 0.91 0.89 1.01 1.02 1.13 1.21 1.27 1.33 1.41 1.56 1.60 1.71 1.76 1.82 1.81 1.79 1.83 1.81 1.85 1.84 1.95
0.39 0.42 0.52 0.53 0.53 0.59 0.74 0.65 0.73 0.72 0.63 0.53 0.43 0.51 0.57 0.59 0.60 0.69 0.71 0.75 0.75 0.71 0.65 0.70 0.77 0.89 0.97 1.08 1.16 1.26 1.35 1.35 1.44 1.47 1.54 1.62 1.68 1.66 1.64 1.65 1.77 1.72 1.74 1.76
0.44 0.39 0.48 0.48 0.55 0.59 0.59 0.66 0.56 0.61 0.43 0.42 0.44 0.46 0.47 0.54 0.60 0.64 0.68 0.75 0.73 0.70 0.71 0.70 0.81 0.88 1.03 1.08 1.18 1.26 1.35 1.36 1.42 1.50 1.52 1.51 1.60 1.64 1.61 1.68 1.64 1.64 1.80 1.76
0.41 0.39 0.46 0.46 0.45 0.52 0.53 0.58 0.52 0.55 0.57 0.44 0.40 0.47 0.59 0.62 0.62 0.65 0.76 0.81 0.84 0.78 0.75 0.83 0.87 0.94 0.97 1.06 1.15 1.21 1.30 1.36 1.43 1.46 1.52 1.57 1.61 1.65 1.71 1.68 1.67 1.77 1.74 1.70
0.37 0.40 0.42 0.38 0.50 0.62 0.62 0.57 0.57 0.51 0.44 0.53 0.43 0.43 0.56 0.50 0.59 0.72 0.76 0.72 0.81 0.85 0.91 0.94 0.99 1.09 1.16 1.18 1.26 1.34 1.41 1.45 1.54 1.60 1.59 1.66 1.67 1.72 1.72 1.76 1.78 1.79 1.78 1.86
0.38 0.39 0.41 0.39 0.44 0.55 0.61 0.55 0.62 0.56 0.47 0.41 0.49 0.45 0.60 0.57 0.48 0.60 0.68 0.66 0.68 0.92 0.99 1.14 1.17 1.20 1.28 1.34 1.37 1.43 1.52 1.49 1.60 1.69 1.73 1.66 1.71 1.72 1.72 1.91 2.00 1.95 1.93 1.95
0.40 0.41 0.48 0.39 0.39 0.57 0.48 0.43 0.58 0.62 0.45 0.42 0.45 0.47 0.54 0.57 0.54 0.57 0.62 0.73 0.76 0.95 1.02 1.19 1.38 1.37 1.43 1.53 1.55 1.56 1.68 1.71 1.70 1.74 1.77 1.80 1.84 1.84 1.96 1.95 1.95 1.99 2.09 2.04
0.30 0.40 0.60 0.63 0.51 0.40 0.40 0.38 0.48 0.58 0.64 0.45 0.44 0.48 0.55 0.59 0.60 0.68 0.74 0.81 0.89 0.99 1.08 1.20 1.34 1.42 1.51 1.56 1.62 1.66 1.71 1.80 1.87 1.89 1.88 1.94 2.02 2.09 2.12 2.10 2.21 2.27 2.25 2.26
0.29 0.38 0.65 0.61 0.48 0.46 0.42 0.42 0.44 0.46 0.44 0.46 0.48 0.55 0.69 0.69 0.61 0.78 0.89 0.95 0.98 1.04 1.12 1.19 1.29 1.37 1.38 1.47 1.55 1.62 1.73 1.80 1.89 1.92 1.98 2.06 1.96 1.93 1.94 2.00 2.15 2.22 2.17 2.13
0.22 0.39 0.51 0.59 0.52 0.44 0.36 0.43 0.38 0.37 0.38 0.39 0.43 0.78 0.85 0.80 0.84 0.93 1.00 0.99 0.96 0.98 1.04 1.07 1.11 1.18 1.28 1.32 1.45 1.42 1.50 1.58 1.54 1.55 1.60 1.63 1.72 1.72 1.77 1.82 1.84 1.78 1.85 1.93
0.21 0.35 0.48 0.52 0.59 0.36 0.38 0.41 0.43 0.37 0.38 0.42 0.79 0.89 0.99 1.01 1.02 1.03 0.98 0.94 0.96 0.99 1.00 1.03 1.06 1.11 1.14 1.22 1.25 1.27 1.32 1.33 1.31 1.32 1.37 1.43 1.48 1.50 1.56 1.58 1.60 1.64 1.70 1.70
0.24 0.30 0.41 0.40 0.42 0.46 0.42 0.41 0.42 0.38 0.43 0.44 0.59 0.96 1.03 1.08 0.98 0.91 1.03 1.06 1.00 1.00 1.00 1.06 1.16 1.14 1.12 1.13 1.17 1.17 1.15 1.18 1.19 1.21 1.24 1.27 1.29 1.28 1.30 1.24 1.22 1.27 1.25 1.25
0.25 0.32 0.39 0.41 0.38 0.37 0.53 0.51 0.57 0.51 0.42 0.58 0.58 0.91 0.95 0.85 0.72 0.82 1.11 1.16 1.10 1.02 1.03 1.03 1.05 1.06 1.03 1.06 1.10 1.07 1.06 1.07 1.04 1.11 1.18 1.25 1.27 1.28 1.27 1.27 1.24 1.29 1.40 1.43
0.32 0.31 0.33 0.38 0.37 0.42 0.56 0.64 0.63 0.41 0.42 0.72 0.75 0.84 0.94 0.97 1.13 1.29 1.28 1.16 1.08 1.02 0.99 1.05 1.05 1.01 1.02 1.10 1.13 1.06 1.03 1.07 1.18 1.24 1.29 1.36 1.39 1.39 1.32 1.22 1.22 1.30 1.38 1.42
0.30 0.32 0.33 0.36 0.34 0.31 0.55 0.55 0.55 0.57 0.60 0.69 0.83 0.95 1.13 1.07 1.14 1.11 1.04 1.02 1.04 1.03 1.04 1.03 0.99 1.02 1.11 1.15 1.10 1.05 1.10 1.24 1.30 1.32 1.34 1.34 1.32 1.32 1.32 1.18 1.24 1.27 1.29 1.32
0.27 0.33 0.32 0.33 0.36 0.56 0.68 0.65 0.68 0.70 0.71 0.80 0.88 1.13 1.14 1.05 0.92 1.00 0.95 0.99 1.02 1.03 1.05 1.05 0.99 1.02 1.06 1.11 1.15 1.09 1.15 1.24 1.31 1.33 1.26 1.20 1.14 1.22 1.17 1.16 1.16 1.15 1.19 1.20
0.44 0.37 0.33 0.36 0.40 0.49 0.71 0.71 0.63 0.83 0.82 0.79 0.96 1.07 1.07 0.93 0.97 0.97 0.99 0.97 0.96 0.99 0.96 1.03 1.06 0.97 1.05 1.18 1.19 1.18 1.24 1.33 1.27 1.24 1.22 1.19 1.03 1.04 1.07 1.09 1.08 1.06 1.08 1.09
0.52 0.45 0.36 0.36 0.55 0.68 0.72 0.66 0.69 0.75 0.74 0.71 0.83 0.92 0.99 1.00 0.99 1.00 0.97 0.98 0.99 0.99 1.04 1.09 0.97 1.01 1.06 1.15 1.15 1.19 1.24 1.22 1.16 1.14 1.16 1.16 1.17 1.19 1.15 1.12 1.12 1.15 1.19 1.21
0.73 0.58 0.47 0.55 0.75 0.83 0.79 0.76 0.75 0.76 0.72 0.82 0.83 0.88 1.07 1.10 1.07 1.05 0.99 1.04 1.06 1.06 1.06 1.00 1.04 1.07 1.09 1.12 1.12 1.19 1.23 1.23 1.17 1.11 1.10 1.20 1.30 1.30 1.30 1.29 1.24 1.29 1.28 1.29
Wind_Speed
9 2 3 3 9 5 7 13 10 8 7 7 7 10 9 8 9 9 8 8 7 7 5 6 5 5 4 4 3 2 2 3 3 2 3 3 4 5 4 4 4 5 5 5
10 7 4 7 12 6 10 3 3 11 11 7 7 12 9 9 8 9 7 8 5 6 6 6 4 5 4 3 2 2 2 3 3 3 4 4 4 4 6 5 5 5 5 5
10 3 6 5 6 2 4 4 3 8 7 9 12 10 9 8 7 8 5 8 6 5 5 4 3 3 3 3 1 2 3 3 4 5 4 4 4 3 4 5 4 4 5 6
11 9 6 6 6 5 2 0 2 2 8 8 10 9 9 9 6 5 6 5 7 5 4 3 4 3 4 4 2 2 3 3 3 4 5 5 4 4 4 5 5 5 5 5
14 11 10 8 4 2 1 1 10 5 6 7 10 8 7 8 6 6 4 6 4 6 6 3 1 4 2 4 3 2 3 4 4 4 5 6 6 5 5 5 5 6 6 6
16 12 9 10 4 5 2 5 11 2 3 5 8 7 7 7 7 8 7 4 4 3 4 4 3 2 1 2 2 1 2 3 5 5 5 6 6 7 6 6 5 6 7 8
17 15 12 11 6 6 5 7 2 7 3 11 15 9 10 10 10 9 9 6 6 6 5 4 3 3 2 2 1 1 0 2 4 5 5 5 6 7 8 8 8 9 8 9
15 15 14 12 11 3 2 6 5 3 6 14 11 11 12 11 11 11 10 8 6 4 5 6 4 4 3 3 2 2 2 1 1 3 4 4 5 6 7 8 8 8 9 8
18 16 15 16 11 9 8 4 12 12 12 7 13 15 12 10 9 9 9 8 9 9 7 7 6 5 5 4 3 3 3 3 0 1 3 3 4 5 6 7 8 9 10 10
14 13 17 17 13 9 6 4 2 7 7 6 12 10 9 9 8 9 6 8 8 7 6 5 3 4 3 2 2 2 2 2 2 1 2 4 5 6 7 8 9 9 10 10
19 14 12 16 14 12 7 5 9 4 4 4 11 10 9 8 8 7 7 6 7 5 4 3 4 3 2 1 0 1 2 3 4 4 5 5 6 8 9 11 12 13 14 14
22 11 15 17 15 14 11 7 12 4 1 2 12 8 8 8 8 9 7 5 4 3 3 2 2 2 2 3 3 4 5 6 7 7 8 9 11 12 13 14 15 16 17 17
23 14 15 16 16 16 10 5 8 3 4 5 5 9 9 6 6 4 5 3 1 2 1 1 1 3 4 5 6 7 8 9 10 11 11 13 14 15 17 18 19 20 20 21
24 18 14 14 16 16 15 11 10 7 9 5 12 13 11 9 8 6 3 2 2 1 1 3 2 4 6 8 8 9 10 11 12 13 14 16 17 19 20 21 22 23 22 23
27 20 16 14 18 15 14 15 13 15 12 4 10 13 13 10 7 5 3 2 2 3 2 4 6 7 9 10 11 12 14 15 15 15 16 17 18 20 22 22 24 24 25 25
28 22 17 18 9 8 16 12 13 10 3 7 13 15 11 7 6 5 3 2 2 3 4 5 7 9 10 11 12 12 14 15 15 17 18 18 19 20 22 24 25 25 26 26
30 24 18 13 14 13 12 11 13 12 7 5 4 12 9 8 6 5 3 1 1 2 4 6 7 9 11 12 14 14 15 16 16 17 19 21 22 23 23 24 24 25 25 25
29 27 19 14 17 14 14 13 10 11 11 10 8 9 9 7 5 4 2 1 1 3 5 7 9 11 12 13 14 15 15 16 16 16 17 18 20 21 22 23 23 24 25 25
29 28 20 15 16 15 16 16 18 14 11 10 7 10 9 7 5 3 2 1 1 3 6 7 9 11 12 14 14 13 14 15 15 16 17 19 20 20 21 23 25 26 26 27
28 27 23 17 17 18 17 16 11 13 13 13 12 11 11 11 8 5 4 1 2 4 6 8 10 11 12 13 13 13 14 15 16 17 18 19 20 21 22 24 24 25 24 26
23 25 26 21 18 17 11 19 18 19 12 15 14 13 13 7 9 8 4 2 3 5 7 9 11 12 13 13 13 14 15 15 16 17 18 19 20 21 21 22 23 24 23 22
25 21 22 22 17 19 12 17 22 13 11 15 13 13 11 9 9 7 5 4 4 6 7 10 11 13 13 14 14 15 15 16 17 18 19 19 20 20 20 21 22 22 21 19
28 25 21 19 21 12 15 16 16 14 13 14 15 14 12 10 9 7 6 5 6 7 9 10 12 13 14 14 14 15 15 16 17 18 18 18 19 18 19 20 20 20 19 18
24 30 23 20 19 22 18 17 16 15 14 13 15 14 12 11 9 8 6 6 7 8 10 11 12 13 14 14 14 15 16 16 17 16 16 16 17 17 18 19 19 18 18 17
20 25 26 24 18 18 20 19 17 16 15 15 14 13 13 11 9 8 7 7 8 10 11 12 13 13 14 15 16 16 16 16 16 15 15 15 15 15 16 17 17 17 17 16
12 21 23 17 17 15 20 19 18 17 16 15 14 14 13 11 9 8 9 9 9 11 12 13 13 14 14 15 15 16 16 16 15 14 15 15 16 15 14 14 15 17 16 16
Wind_Direction
216 59 178 226 201 230 8 15 62 87 124 154 140 128 134 139 142 135 142 132 139 136 126 132 147 145 145 145 142 149 169 186 190 188 174 182 191 198 198 201 210 211 218 234
226 213 256 226 213 93 93 147 74 82 119 127 130 134 136 148 155 141 158 142 148 160 145 144 139 158 145 146 163 180 197 200 210 216 213 208 214 218 223 226 218 228 227 232
226 173 192 195 177 46 203 252 91 114 120 136 113 110 123 147 158 158 158 170 152 146 169 160 171 181 178 173 180 217 227 216 229 229 221 218 214 221 181 201 223 229 242 246
226 199 207 194 147 128 201 1 187 193 173 146 160 99 114 134 154 161 175 167 180 173 162 175 196 201 214 211 231 249 231 229 243 221 218 212 212 212 223 234 244 241 247 248
220 203 204 211 215 228 20 35 3 28 240 178 153 112 123 133 141 147 160 189 178 183 189 177 178 198 233 216 225 244 245 236 233 222 225 220 228 235 240 236 250 251 257 262
224 192 198 208 221 212 336 43 61 356 64 159 116 73 146 145 134 129 127 135 182 161 181 190 184 132 170 177 196 233 239 241 231 229 229 233 231 236 243 251 255 261 262 266
218 223 206 214 216 189 106 31 41 144 144 120 116 148 98 115 114 121 123 119 100 106 109 123 142 140 115 126 140 122 311 248 226 231 234 238 241 244 248 255 265 263 273 273
201 210 195 199 216 208 164 114 146 177 171 105 115 120 116 106 100 109 107 101 99 133 109 100 90 118 108 112 110 100 71 56 210 223 234 241 250 254 256 259 264 271 272 281
200 213 198 207 202 214 175 277 240 211 257 137 107 108 114 117 117 119 110 103 101 88 86 94 91 96 95 96 93 86 75 56 72 229 241 250 256 264 270 271 267 271 273 272
201 205 209 201 206 214 251 237 306 169 102 134 117 131 127 139 134 126 124 112 110 100 98 81 91 89 94 81 78 59 48 24 5 297 267 269 274 278 277 278 273 278 278 274
219 224 189 197 201 204 175 205 152 165 98 253 141 125 125 132 138 141 132 126 117 96 89 81 75 68 57 24 72 354 339 324 321 300 285 282 281 283 282 283 278 276 276 276
213 207 196 203 202 214 234 260 214 220 220 69 125 129 145 148 135 110 115 115 87 91 91 76 50 31 11 334 299 302 301 303 302 301 296 285 285 285 283 284 286 282 280 277
201 213 204 191 202 210 210 177 145 143 193 230 154 151 139 139 140 134 111 97 77 95 69 67 19 1 337 321 307 294 296 295 289 290 291 290 286 286 288 287 284 283 280 278
201 212 209 194 204 188 203 216 162 144 184 187 144 153 155 142 136 136 119 101 68 21 31 345 34 356 338 333 326 312 313 304 295 293 288 289 289 288 292 285 287 284 280 278
200 209 208 263 199 198 191 205 199 180 178 82 155 166 164 157 137 129 110 95 72 48 48 359 348 340 335 326 314 310 302 301 303 306 298 299 295 293 294 292 292 284 282 278
197 207 170 211 203 181 186 189 191 198 184 126 130 141 159 168 167 146 124 86 42 5 354 349 334 333 332 333 328 322 319 314 308 306 306 307 306 305 303 299 293 292 289 286
199 201 207 198 201 196 200 188 187 193 187 191 181 155 168 177 170 160 152 113 49 13 356 349 341 335 333 330 326 325 320 318 316 312 311 310 309 308 306 304 301 298 296 293
199 201 209 203 204 200 207 211 200 197 187 186 162 174 164 162 167 167 176 183 322 338 337 334 332 333 331 331 330 326 324 322 321 321 321 321 319 317 314 312 309 305 301 298
200 201 207 213 218 213 207 207 211 208 185 199 174 170 171 168 169 159 176 209 319 333 332 336 336 334 332 331 332 334 334 333 332 330 328 327 326 325 323 321 316 312 308 304
198 201 210 213 217 219 207 197 193 193 218 203 200 189 187 196 204 202 191 197 339 339 333 333 335 337 337 336 336 336 335 334 333 331 330 330 330 330 328 326 324 320 316 312
203 202 208 209 221 224 215 202 205 216 215 202 200 201 204 215 200 188 200 251 309 326 332 335 336 335 334 333 335 336 334 334 334 333 333 332 332 333 334 335 334 331 328 326
208 205 205 208 209 222 222 204 194 196 214 209 193 192 181 182 193 207 221 250 296 318 326 330 331 333 333 332 333 332 332 332 332 333 333 334 334 335 335 337 339 342 343 342
211 210 208 212 212 192 192 191 198 212 210 197 191 186 191 195 201 210 229 260 297 314 320 325 328 330 331 331 331 332 331 330 331 333 335 337 339 338 340 340 342 344 347 347
207 209 213 215 217 212 202 203 206 189 192 191 189 192 196 198 208 217 238 267 292 309 315 321 326 328 331 331 331 330 331 332 332 333 335 339 341 345 346 347 348 350 350 352
201 201 209 213 219 194 198 198 198 195 196 196 193 198 200 202 216 229 246 269 291 306 313 318 320 323 324 326 327 327 327 330 332 333 335 337 337 338 344 348 351 352 353 351
196 194 199 197 196 201 199 199 201 199 200 199 199 203 207 219 228 239 256 271 287 303 309 313 314 317 318 322 322 324 326 325 326 328 333 333 331 335 337 340 344 349 346 344